TimeCDT,TemperatureF,Dew PointF,Humidity,Sea Level PressureIn,VisibilityMPH,Wind Direction,Wind SpeedMPH,Gust SpeedMPH,PrecipitationIn,Events,Conditions,WindDirDegrees,DateUTC
12:15 AM,33.8,30.2,87,29.94,10.0,Calm,Calm,-,N/A,,Clear,0,2012-10-03 05:15:00
12:35 AM,37.4,33.8,87,29.94,10.0,Calm,Calm,-,N/A,,Clear,0,2012-10-03 05:35:00
12:55 AM,33.8,32.0,93,29.95,10.0,Calm,Calm,-,N/A,,Clear,0,2012-10-03 05:55:00
1:15 AM,33.8,32.0,93,29.95,10.0,Calm,Calm,-,N/A,,Clear,0,2012-10-03 06:15:00
1:35 AM,33.8,32.0,93,29.96,10.0,Calm,Calm,-,N/A,,Clear,0,2012-10-03 06:35:00
1:55 AM,32.0,30.2,93,29.96,10.0,Calm,Calm,-,N/A,,Clear,0,2012-10-03 06:55:00
2:15 AM,32.0,32.0,100,29.96,10.0,Calm,Calm,-,N/A,,Clear,0,2012-10-03 07:15:00
2:35 AM,32.0,30.2,93,29.96,10.0,Calm,Calm,-,N/A,,Clear,0,2012-10-03 07:35:00
2:55 AM,32.0,32.0,100,29.96,7.0,Calm,Calm,-,N/A,,Clear,0,2012-10-03 07:55:00
3:15 AM,32.0,30.2,93,29.96,10.0,Calm,Calm,-,N/A,,Clear,0,2012-10-03 08:15:00
3:35 AM,32.0,30.2,93,29.96,0.2,Calm,Calm,-,N/A,Fog,Light Freezing Fog,0,2012-10-03 08:35:00
3:55 AM,32.0,30.2,93,29.97,0.2,Calm,Calm,-,N/A,Fog,Light Freezing Fog,0,2012-10-03 08:55:00
4:15 AM,32.0,30.2,93,29.97,0.8,Calm,Calm,-,N/A,,Overcast,0,2012-10-03 09:15:00
4:35 AM,32.0,32.0,100,29.97,0.5,Calm,Calm,-,N/A,Fog,Light Freezing Fog,0,2012-10-03 09:35:00
4:55 AM,32.0,32.0,100,29.97,0.2,Calm,Calm,-,N/A,Fog,Fog,0,2012-10-03 09:55:00
5:15 AM,32.0,32.0,100,29.97,0.2,Calm,Calm,-,N/A,Fog,Fog,0,2012-10-03 10:15:00
5:35 AM,32.0,32.0,100,29.97,0.2,Calm,Calm,-,N/A,Fog,Fog,0,2012-10-03 10:35:00
5:55 AM,32.0,32.0,100,29.97,0.2,Calm,Calm,-,N/A,Fog,Fog,0,2012-10-03 10:55:00
6:15 AM,32.0,32.0,100,29.97,0.2,Calm,Calm,-,N/A,Fog,Fog,0,2012-10-03 11:15:00
6:35 AM,33.8,32.0,93,29.97,0.2,Calm,Calm,-,N/A,Fog,Fog,0,2012-10-03 11:35:00
6:55 AM,33.8,33.8,100,29.97,0.2,Calm,Calm,-,N/A,Fog,Fog,0,2012-10-03 11:55:00
7:15 AM,33.8,33.8,100,29.97,0.2,Calm,Calm,-,N/A,Fog,Fog,0,2012-10-03 12:15:00
7:35 AM,35.6,33.8,93,29.97,0.2,Calm,Calm,-,N/A,Fog,Fog,0,2012-10-03 12:35:00
7:55 AM,35.6,35.6,100,29.97,0.2,Calm,Calm,-,N/A,Fog,Fog,0,2012-10-03 12:55:00
8:15 AM,37.4,37.4,100,29.98,0.2,Calm,Calm,-,N/A,Fog,Fog,0,2012-10-03 13:15:00
8:35 AM,41.0,41.0,100,29.98,0.2,Calm,Calm,-,N/A,Fog,Fog,0,2012-10-03 13:35:00
8:55 AM,42.8,42.8,100,29.99,0.5,Calm,Calm,-,N/A,Fog,Fog,0,2012-10-03 13:55:00
9:15 AM,46.4,44.6,93,30.00,4.0,Calm,Calm,-,N/A,,Mostly Cloudy,0,2012-10-03 14:15:00
9:35 AM,48.2,46.4,93,29.99,7.0,Calm,Calm,-,N/A,,Scattered Clouds,0,2012-10-03 14:35:00
9:55 AM,50.0,50.0,100,30.00,10.0,Calm,Calm,-,N/A,,Clear,0,2012-10-03 14:55:00
10:15 AM,53.6,51.8,94,29.99,10.0,SSW,3.5,-,N/A,,Clear,200,2012-10-03 15:15:00
10:35 AM,55.4,53.6,94,29.99,10.0,SSW,4.6,-,N/A,,Clear,210,2012-10-03 15:35:00
10:55 AM,59.0,55.4,88,29.99,10.0,SW,3.5,-,N/A,,Clear,230,2012-10-03 15:55:00
11:15 AM,62.6,50.0,63,29.98,10.0,WSW,4.6,-,N/A,,Clear,250,2012-10-03 16:15:00
11:35 AM,64.4,48.2,56,29.98,10.0,SSW,3.5,-,N/A,,Clear,210,2012-10-03 16:35:00
11:55 AM,64.4,46.4,52,29.97,10.0,Calm,Calm,-,N/A,,Clear,0,2012-10-03 16:55:00
12:15 PM,68.0,46.4,46,29.97,10.0,Calm,Calm,-,N/A,,Clear,0,2012-10-03 17:15:00
12:35 PM,68.0,42.8,40,29.96,10.0,Calm,Calm,-,N/A,,Clear,0,2012-10-03 17:35:00
12:55 PM,68.0,42.8,40,29.95,10.0,Calm,Calm,-,N/A,,Clear,0,2012-10-03 17:55:00
1:15 PM,68.0,42.8,40,29.95,10.0,SSW,3.5,-,N/A,,Clear,210,2012-10-03 18:15:00
1:35 PM,69.8,42.8,38,29.94,10.0,SSE,3.5,-,N/A,,Clear,150,2012-10-03 18:35:00
1:55 PM,69.8,42.8,38,29.94,10.0,Calm,Calm,-,N/A,,Clear,0,2012-10-03 18:55:00
2:15 PM,69.8,41.0,35,29.93,10.0,Calm,Calm,-,N/A,,Clear,0,2012-10-03 19:15:00
2:35 PM,69.8,41.0,35,29.93,10.0,Calm,Calm,-,N/A,,Clear,0,2012-10-03 19:35:00
2:55 PM,69.8,41.0,35,29.93,10.0,Calm,Calm,-,N/A,,Clear,0,2012-10-03 19:55:00
3:15 PM,71.6,41.0,33,29.92,10.0,Calm,Calm,-,N/A,,Clear,0,2012-10-03 20:15:00
3:35 PM,71.6,41.0,33,29.92,10.0,ESE,6.9,-,N/A,,Clear,120,2012-10-03 20:35:00
3:55 PM,69.8,41.0,35,29.92,10.0,South,3.5,-,N/A,,Clear,170,2012-10-03 20:55:00
4:15 PM,71.6,41.0,33,29.92,10.0,SSW,3.5,-,N/A,,Clear,200,2012-10-03 21:15:00
4:35 PM,69.8,39.2,33,29.92,10.0,Calm,Calm,-,N/A,,Clear,0,2012-10-03 21:35:00
4:55 PM,69.8,39.2,33,29.92,10.0,Calm,Calm,-,N/A,,Clear,0,2012-10-03 21:55:00
5:15 PM,69.8,41.0,35,29.93,10.0,SE,3.5,-,N/A,,Clear,140,2012-10-03 22:15:00
5:35 PM,68.0,41.0,37,29.93,10.0,Calm,Calm,-,N/A,,Clear,0,2012-10-03 22:35:00
5:55 PM,66.2,42.8,43,29.93,10.0,Calm,Calm,-,N/A,,Clear,0,2012-10-03 22:55:00
6:15 PM,62.6,42.8,48,29.94,10.0,Calm,Calm,-,N/A,,Clear,0,2012-10-03 23:15:00
6:35 PM,60.8,42.8,52,29.94,10.0,Calm,Calm,-,N/A,,Clear,0,2012-10-03 23:35:00
6:55 PM,59.0,42.8,55,29.94,10.0,Calm,Calm,-,N/A,,Clear,0,2012-10-03 23:55:00
7:15 PM,57.2,42.8,59,29.94,10.0,Calm,Calm,-,N/A,,Clear,0,2012-10-04 00:15:00
7:35 PM,53.6,41.0,62,29.95,10.0,Calm,Calm,-,N/A,,Clear,0,2012-10-04 00:35:00
7:55 PM,53.6,42.8,67,29.96,10.0,Calm,Calm,-,N/A,,Clear,0,2012-10-04 00:55:00
8:15 PM,55.4,42.8,63,29.96,10.0,Calm,Calm,-,N/A,,Clear,0,2012-10-04 01:15:00
8:35 PM,53.6,42.8,67,29.97,10.0,Calm,Calm,-,N/A,,Clear,0,2012-10-04 01:35:00
8:55 PM,51.8,42.8,71,29.97,10.0,Calm,Calm,-,N/A,,Clear,0,2012-10-04 01:55:00
9:15 PM,50.0,42.8,76,29.97,10.0,Calm,Calm,-,N/A,,Clear,0,2012-10-04 02:15:00
9:35 PM,46.4,41.0,81,29.96,10.0,Calm,Calm,-,N/A,,Clear,0,2012-10-04 02:35:00
9:55 PM,44.6,41.0,87,29.97,10.0,Calm,Calm,-,N/A,,Clear,0,2012-10-04 02:55:00
10:15 PM,44.6,39.2,81,29.97,10.0,Calm,Calm,-,N/A,,Clear,0,2012-10-04 03:15:00
10:35 PM,42.8,39.2,87,29.97,10.0,Calm,Calm,-,N/A,,Clear,0,2012-10-04 03:35:00
10:55 PM,42.8,39.2,87,29.97,10.0,Calm,Calm,-,N/A,,Clear,0,2012-10-04 03:55:00
11:15 PM,42.8,39.2,87,29.97,10.0,Calm,Calm,-,N/A,,Clear,0,2012-10-04 04:15:00
11:35 PM,42.8,39.2,87,29.97,10.0,Calm,Calm,-,N/A,,Clear,0,2012-10-04 04:35:00
11:55 PM,41.0,37.4,87,29.97,10.0,Calm,Calm,-,N/A,,Clear,0,2012-10-04 04:55:00